Terminal Aerodrome Forecast
Issued by NWS Mt. Holly, NJ

Home | Current Version | Previous Version | Text Only | Print | Product List | Glossary On
Versions: 1 2 3 4 5 6 7 8 9 10 11 12 13 14 15 16
000
FTUS41 KPHI 230935 AAB
TAFILG
TAF AMD
KILG 230935Z 2310/2406 16006KT P6SM VCTS OVC015CB WS020/20035KT
      TEMPO 2310/2311 6SM -TSRA OVC015CB
     FM231100 17011KT 5SM SHRA OVC015 WS020/20040KT
     FM231500 20013KT 4SM SHRA OVC015 WS020/20040KT
     FM231900 24007KT P6SM VCSH BKN020
     FM232100 28012KT P6SM BKN040=

USA.gov is the U.S. government's official web portal to all federal, state and local government web resources and services.